Commit Graph

5787 Commits

Author SHA1 Message Date
Felix Ruess cedd414bf9 updated udev rules 2010-10-26 13:55:16 +00:00
Felix Ruess 29f5699e53 remove old airspeed and ets files 2010-10-26 11:21:39 +00:00
Felix Ruess 99fcf70ecf make i2c device configurable through parameter for ets modules 2010-10-26 11:21:33 +00:00
Felix Ruess ffe91b0fae use I2CReceive makro for airspeed ets 2010-10-26 11:21:26 +00:00
Felix Ruess bd0897b4b3 remove baro ets event makro and move transaction status check into event function 2010-10-26 11:21:20 +00:00
Felix Ruess f317d3ccdd remove airspeed ets event makro and move transaction status check into event function 2010-10-26 11:21:13 +00:00
Felix Ruess 2d2e083b79 clean more trailing whitespaces 2010-10-26 11:21:07 +00:00
Felix Ruess 5834b7f064 fix airspeed ets module i2c transaction status, get new measurements in periodic function if status is I2CTransDone and not I2CTransSuccess 2010-10-26 11:21:00 +00:00
Felix Ruess db631ba62d cleanup trailing whitespaces 2010-10-26 11:20:52 +00:00
Martin Dieblich 67c6cc18a5 fixed a bug for the enu/ned conversion 2010-10-26 10:29:09 +00:00
Felix Ruess f4bef9b1aa uuups, of course use angle brackets for standard c math.h library 2010-10-26 01:20:19 +00:00
Felix Ruess 5ddb0aaa47 use double quotes instead of angle brackets for math includes 2010-10-25 22:55:42 +00:00
Felix Ruess 08716bbd8d use double quotes for subsystems and firmware, angle brackets only for external includes 2010-10-25 22:55:25 +00:00
Felix Ruess 898606d0c6 ups, add spektrum files again 2010-10-25 22:42:16 +00:00
Felix Ruess f3129b9fc1 whitespace cleanup 2010-10-25 22:42:10 +00:00
Felix Ruess 70109ab2a2 whitespace cleanup 2010-10-25 22:27:07 +00:00
Felix Ruess de7decbf65 fix ppm interrupt definitions for lpc21 2010-10-25 21:59:10 +00:00
Felix Ruess 3043392778 fix RC_OK defines (was RADIO_CONTROL_OK for booz) 2010-10-25 21:59:03 +00:00
Felix Ruess 3b8e1f1ce5 for merged radio control, replace channels define RADIO_CONTROL_<channel> with RADIO_<channel> 2010-10-25 21:58:55 +00:00
Felix Ruess bb779c6339 replace USE_RADIO_CONTROL with RADIO_CONTROL 2010-10-25 21:58:47 +00:00
Felix Ruess 5e7a2acbba strip implementation files of radio_control prefix 2010-10-25 21:58:39 +00:00
Felix Ruess 24492850b1 move some makefiles to obsolete dir 2010-10-25 21:58:32 +00:00
Felix Ruess 73490c83b4 fix some spektrum makefiles 2010-10-25 21:58:26 +00:00
Felix Ruess 7d2fd3d60c fix radio control channels for spektrum (RADIO_CONTROL_<channel> to RADIO_<channel>) 2010-10-25 21:58:19 +00:00
Felix Ruess 47a3854b8b fix some spektrum includes 2010-10-25 21:58:12 +00:00
Felix Ruess 149a7511b2 fix spektrum files 2010-10-25 21:58:04 +00:00
Felix Ruess aac25be67b moved radio_control spektrum code to general subsystem 2010-10-25 21:57:57 +00:00
Felix Ruess cada9a9b44 deleted booz ppm radio control 2010-10-25 21:57:47 +00:00
Felix Ruess 3a823d691c temporarily fix radio control feed with nps 2010-10-25 21:57:40 +00:00
Felix Ruess a8c1b523cd update rotorcraft to use RADIO_THROTTLE instead of RADIO_CONTROL_THROTTLE, etc. 2010-10-25 21:57:32 +00:00
Felix Ruess 8bb77a3c3d start fixing rc for rotorcraft 2010-10-25 21:57:25 +00:00
Felix Ruess 5497b21831 start fixing booz radio control includes 2010-10-25 21:57:18 +00:00
Felix Ruess 6fbc0d3495 moving radio control to subsystems 2010-10-25 21:57:06 +00:00
Felix Ruess dc5eb16caf more whitespace cleanup 2010-10-25 18:50:05 +00:00
Gautier Hattenberger 548ec57159 forgot a file for new trigger_ext module 2010-10-25 16:02:24 +00:00
Gautier Hattenberger d8f0489b25 add module that send data on a windturbine by using trigger_ext as a low level module 2010-10-25 15:34:39 +00:00
Felix Ruess 6594434636 more whitespace cleanup 2010-10-25 15:21:46 +00:00
Gautier Hattenberger c8ba8dc033 add a generic trigger on external event 2010-10-25 15:01:42 +00:00
Felix Ruess 98556cb27e whitespace cleanup 2010-10-25 14:58:30 +00:00
Felix Ruess 43839b5b7e use angle brackets for firmware includes 2010-10-25 14:45:07 +00:00
Felix Ruess 85a23e5c35 use angle brackets for math includes 2010-10-25 14:10:20 +00:00
Felix Ruess 79a927adfb moved ahrs to general subsystems dir 2010-10-25 14:10:07 +00:00
Gautier Hattenberger 38fab15d4a remove old ppm and ppm_telemetry 2010-10-25 12:46:09 +00:00
Martin Dieblich 770b4d0850 2010-10-25 11:32:12 +00:00
Gautier Hattenberger 0a4dd5bcc2 move tcas (collision avoidence system) to modules 2010-10-25 08:58:08 +00:00
Gautier Hattenberger ca33e50747 update LAAS aircrafts with reorg 2010-10-25 08:54:38 +00:00
Felix Ruess 4ed083a408 fix more peripheral includes 2010-10-24 18:49:14 +00:00
Martin Mueller 448796c06d GFI wind dir/speed sensor module 2010-10-24 14:01:48 +00:00
Martin Mueller 743a6af7ac arduimu fixes 2010-10-23 22:32:01 +00:00
Martin Mueller 7fdb0356f5 add arduimu 2010-10-23 22:24:08 +00:00